Flight Briefing for CPX438

Departure Arrival
Philadelphia International Airport (KPHL)
Click to view FAA NOTAMS
Chicago/Rockford International Airport (KRFD)
Click to view FAA NOTAMS
Departure Time Arrival Time
N/A N/A
Aircraft Distance
B757-200SF 643nm
Departure METAR Arrival METAR
KPHL 232254Z 18006KT 10SM BKN140 BKN250 23/19 A2992 RMK AO2 SLP130 T02330194 $ KRFD 232254Z 27008KT 10SM FEW250 23/11 A3006 RMK AO2 SLP177 T02280111
Suggested Route
PTW SARAA RAV PSB J60 JOT QUOTE


View recent IFR Routes data
Notes



Charts and Procedures

Charts for KPHL
No chart available
Charts for KRFD
No chart available

Windy.com Weather Map